Location: Oshawa
(43.9000°N, 78.8670°W)
Time: 18:19:25
(UTC-05:00)

Transit 2A Rocket - Visible Passes

Search period start: 24 January 2017 00:00
Search period end: 03 February 2017 00:00
Orbit: 593 x 911 km, 66.7° (Epoch: 24 January)

Date Brightness Start Highest point End Pass type
(mag) Time Alt. Az. Time Alt. Az. Time Alt. Az.
24 Jan 5.1 17:46:56 10° NW 17:51:13 63° WSW 17:55:29 10° SSE visible
25 Jan 8.1 18:49:14 10° W 18:50:48 12° WSW 18:52:23 10° SW visible
26 Jan 7.4 18:05:24 10° WNW 18:08:44 22° WSW 18:12:05 10° SSW visible
27 Jan 7.8 06:58:42 10° SSE 07:02:51 24° ESE 07:06:45 10° ENE visible
28 Jan 8.4 06:18:15 10° SE 06:20:44 13° ESE 06:23:08 10° ENE visible
30 Jan 6.9 06:33:29 10° S 06:38:11 34° ESE 06:42:33 10° NE visible
31 Jan 7.7 05:52:19 10° SSE 05:56:00 20° ESE 05:59:31 10° ENE visible
01 Feb 8.2 05:12:41 10° ESE 05:13:55 11° ESE 05:15:08 10° E visible
01 Feb 5.0 06:50:38 10° SSW 06:55:52 84° ESE 07:00:39 10° NNE visible
02 Feb 5.9 06:08:32 10° S 06:13:33 48° ESE 06:18:11 10° NE visible
